Change the Weather History Date:

Monday, November 5, 2012

  Actual Average Record
Temperature  
Mean Temperature 41 °F 42 °F  
Max Temperature 48 °F 50 °F 71 °F (1924)
Min Temperature 33 °F 34 °F 1 °F (1951)
Degree Days  
Heating Degree Days 24 23  
Month to date heating degree days 126 111  
Since 1 July heating degree days 810 739  
Cooling Degree Days 0 0  
Month to date cooling degree days 0 0  
Year to date cooling degree days 1083 782  
Moisture  
Dew Point 28 °F    
Average Humidity 60    
Maximum Humidity 75    
Minimum Humidity 45    
Precipitation  
Precipitation 0.00 in 0.06 in 1.29 in (1905)
Month to date precipitation T 0.33  
Year to date precipitation 23.46 30.02  
Snow  
Snow 0.00 in 0.00 in 6.50 in (1959)
Month to date snowfall 0.0 0.2  
Since 1 July snowfall 0.0 0.4  
Snow Depth 0.00 in    
Sea Level Pressure  
Sea Level Pressure 30.18 in    
Wind  
Wind Speed 4 mph (ESE)    
Max Wind Speed 10 mph    
Max Gust Speed 13 mph    
Visibility 10 miles    
Events      
T = Trace of Precipitation, MM = Missing Value Source: NWS Daily Summary

Daily Weather History Graph

Daily Weather History Graph

Search for Another Location

Airport or City:

Trip Planner

Search our weather history database for the weather conditions in past years. The results will help you decide how hot, cold, wet, or windy it might be!

Date:

Astronomy

Nov. 05, 2012 Rise Set
Actual Time 6:47 AM CST 4:49 PM CST
Civil Twilight 6:16 AM CST 5:19 PM CST
Nautical Twilight 5:42 AM CST 5:54 PM CST
Astronomical Twilight 5:08 AM CST 6:27 PM CST
Moon 10:27 PM CST (11/5) 12:07 PM CST (11/5)
Length of Visible Light 11h 02m
Length of Day
10h 02m
Waning Gibbous, 62% of the Moon is Illuminated
Nov 5
Waning Gibbous
Nov 6
Last Quarter
Nov 13
New
Nov 20
First Quarter
Nov 28
Full

Hourly Weather History & Observations

Time (CST) Temp. Windchill Dew Point Humidity Pressure Visibility Wind Dir Wind Speed Gust Speed Precip Events Conditions
12:53 AM 39.9 °F 37.8 °F 30.0 °F 68% 30.19 in 10.0 mi SE 3.5 mph - N/A   Overcast
1:53 AM 39.9 °F 37.8 °F 30.0 °F 68% 30.20 in 10.0 mi ESE 3.5 mph - N/A   Overcast
2:53 AM 39.0 °F - 28.9 °F 67% 30.20 in 10.0 mi Calm Calm - N/A   Overcast
3:53 AM 37.9 °F 34.4 °F 28.9 °F 70% 30.21 in 10.0 mi SE 4.6 mph - N/A   Overcast
4:53 AM 37.0 °F 31.6 °F 27.0 °F 67% 30.22 in 10.0 mi ESE 6.9 mph - N/A   Overcast
5:53 AM 35.1 °F 29.3 °F 26.1 °F 70% 30.22 in 10.0 mi ESE 6.9 mph - N/A   Clear
6:53 AM 33.1 °F - 25.0 °F 72% 30.23 in 10.0 mi Calm Calm - N/A   Mostly Cloudy
7:53 AM 35.1 °F 29.3 °F 26.1 °F 70% 30.25 in 10.0 mi ESE 6.9 mph - N/A   Overcast
8:53 AM 37.0 °F 32.4 °F 27.0 °F 67% 30.25 in 10.0 mi East 5.8 mph - N/A   Mostly Cloudy
9:53 AM 39.9 °F 34.5 °F 28.0 °F 63% 30.24 in 10.0 mi East 8.1 mph - N/A   Overcast
10:53 AM 44.1 °F 41.5 °F 28.9 °F 55% 30.24 in 10.0 mi East 4.6 mph - N/A   Partly Cloudy
11:53 AM 44.1 °F - 28.0 °F 53% 30.22 in 10.0 mi Calm Calm - N/A   Clear
12:53 PM 46.9 °F - 28.9 °F 50% 30.20 in 10.0 mi Calm Calm - N/A   Scattered Clouds
1:53 PM 46.9 °F - 28.0 °F 48% 30.18 in 10.0 mi Calm Calm - N/A   Partly Cloudy
2:53 PM 46.9 °F - 27.0 °F 46% 30.17 in 10.0 mi Calm Calm - N/A   Scattered Clouds
3:53 PM 44.1 °F 41.5 °F 28.9 °F 55% 30.16 in 10.0 mi West 4.6 mph - N/A   Clear
4:53 PM 42.1 °F - 30.0 °F 62% 30.16 in 10.0 mi Calm Calm - N/A   Overcast
5:53 PM 41.0 °F - 28.9 °F 62% 30.16 in 10.0 mi Calm Calm - N/A   Mostly Cloudy
6:53 PM 41.0 °F 37.1 °F 28.0 °F 60% 30.15 in 10.0 mi East 5.8 mph - N/A   Overcast
7:53 PM 37.9 °F 32.1 °F 27.0 °F 65% 30.13 in 10.0 mi ESE 8.1 mph - N/A   Clear
8:53 PM 36.0 °F 32.1 °F 27.0 °F 70% 30.13 in 10.0 mi SE 4.6 mph - N/A   Clear
9:53 PM 34.0 °F 29.8 °F 26.1 °F 73% 30.11 in 10.0 mi ESE 4.6 mph - N/A   Clear
10:53 PM 37.0 °F 34.5 °F 28.9 °F 73% 30.09 in 10.0 mi South 3.5 mph - N/A   Overcast
11:53 PM 37.9 °F 32.7 °F 27.0 °F 65% 30.07 in 10.0 mi SSE 6.9 mph - N/A   Overcast